• In United Kingdom
  • List of Countries
  • For 7 days
  • Water Temperature
  • Satellite Maps
  • Weather Map
  • Weather Widgets
  • user-avatar
    Login

    Hourly Weather Chakhansur

    Today, 19 February, Monday

    Time Temperature Precipitation Wind Pressure Humidity
    00:00 +21°C° 0 mm 4 mps 716 mmHg 19%
    01:00 +21°C° 0 mm 4 mps 715 mmHg 20%
    02:00 +21°C° 0 mm 4 mps 715 mmHg 21%
    03:00 +20°C° 0 mm 4 mps 715 mmHg 21%
    04:00 +20°C° 0 mm 4 mps 715 mmHg 22%
    05:00 +20°C° 0 mm 4 mps 715 mmHg 23%
    06:00 +19°C° 0 mm 4 mps 715 mmHg 24%
    07:00 +19°C° 0 mm 4 mps 715 mmHg 25%
    08:00 +21°C° 0 mm 4 mps 715 mmHg 22%
    09:00 +25°C° 0 mm 4 mps 715 mmHg 19%
    10:00 +27°C° 0 mm 4 mps 716 mmHg 16%
    11:00 +28°C° 0 mm 4 mps 715 mmHg 15%
    12:00 +30°C° 0 mm 4 mps 715 mmHg 14%
    13:00 +31°C° 0 mm 3 mps 714 mmHg 12%
    14:00 +31°C° 0 mm 3 mps 714 mmHg 12%
    15:00 +33°C° 0 mm 3 mps 714 mmHg 11%
    16:00 +33°C° 0 mm 3 mps 713 mmHg 11%
    17:00 +31°C° 0 mm 3 mps 713 mmHg 12%
    18:00 +30°C° 0 mm 4 mps 713 mmHg 13%
    19:00 +29°C° 0 mm 4 mps 713 mmHg 14%
    20:00 +28°C° 0 mm 5 mps 713 mmHg 15%
    21:00 +28°C° 0 mm 6 mps 713 mmHg 16%
    22:00 +27°C° 0 mm 6 mps 713 mmHg 18%
    23:00 +27°C° 0 mm 6 mps 713 mmHg 19%

    Tomorrow, 20 February, Tuesday

    Time Temperature Precipitation Wind Pressure Humidity
    00:00 +26°C° 0 mm 6 mps 713 mmHg 20%
    01:00 +24°C° 0 mm 6 mps 713 mmHg 21%
    02:00 +24°C° 0 mm 6 mps 713 mmHg 22%
    03:00 +23°C° 0 mm 5 mps 713 mmHg 23%
    04:00 +22°C° 0 mm 5 mps 713 mmHg 23%
    05:00 +21°C° 0 mm 4 mps 714 mmHg 25%
    06:00 +20°C° 0 mm 4 mps 714 mmHg 27%
    07:00 +20°C° 0 mm 4 mps 715 mmHg 29%
    08:00 +20°C° 0 mm 5 mps 716 mmHg 29%
    09:00 +21°C° 0 mm 6 mps 716 mmHg 28%
    10:00 +21°C° 0 mm 6 mps 717 mmHg 27%
    11:00 +23°C° 0 mm 6 mps 717 mmHg 25%
    12:00 +24°C° 0 mm 6 mps 717 mmHg 22%
    13:00 +26°C° 0 mm 6 mps 717 mmHg 20%
    14:00 +26°C° 0 mm 5 mps 717 mmHg 18%
    15:00 +27°C° 0 mm 5 mps 716 mmHg 17%
    16:00 +27°C° 0 mm 4 mps 716 mmHg 15%
    17:00 +26°C° 0 mm 4 mps 717 mmHg 17%
    18:00 +23°C° 0 mm 4 mps 717 mmHg 18%
    19:00 +22°C° 0 mm 4 mps 717 mmHg 20%
    20:00 +21°C° 0 mm 4 mps 717 mmHg 22%
    21:00 +20°C° 0 mm 4 mps 718 mmHg 24%
    22:00 +20°C° 0 mm 4 mps 718 mmHg 26%
    23:00 +19°C° 0 mm 4 mps 718 mmHg 28%

    Day after tomorrow, 21 February, Wednesday

    Time Temperature Precipitation Wind Pressure Humidity
    00:00 +18°C° 0 mm 4 mps 718 mmHg 30%
    01:00 +17°C° 0 mm 4 mps 718 mmHg 32%
    02:00 +17°C° 0 mm 4 mps 718 mmHg 34%
    03:00 +15°C° 0 mm 4 mps 718 mmHg 35%
    04:00 +15°C° 0 mm 4 mps 718 mmHg 37%
    05:00 +14°C° 0 mm 4 mps 718 mmHg 39%
    06:00 +14°C° 0 mm 4 mps 719 mmHg 40%
    07:00 +14°C° 0 mm 4 mps 719 mmHg 42%
    08:00 +17°C° 0 mm 4 mps 720 mmHg 37%
    09:00 +18°C° 0 mm 3 mps 720 mmHg 32%
    10:00 +20°C° 0 mm 3 mps 720 mmHg 27%
    11:00 +22°C° 0 mm 3 mps 720 mmHg 24%
    12:00 +24°C° 0 mm 2 mps 720 mmHg 21%
    13:00 +25°C° 0 mm 2 mps 719 mmHg 18%
    14:00 +25°C° 0 mm 2 mps 719 mmHg 18%
    15:00 +25°C° 0 mm 2 mps 718 mmHg 17%
    16:00 +26°C° 0 mm 2 mps 718 mmHg 16%
    17:00 +24°C° 0 mm 2 mps 718 mmHg 18%
    18:00 +23°C° 0 mm 2 mps 718 mmHg 19%
    19:00 +21°C° 0 mm 2 mps 719 mmHg 20%
    20:00 +21°C° 0 mm 2 mps 719 mmHg 21%
    21:00 +20°C° 0 mm 2 mps 719 mmHg 21%
    22:00 +20°C° 0 mm 2 mps 719 mmHg 22%
    23:00 +19°C° 0 mm 2 mps 718 mmHg 22%

    22 February, Thursday

    Time Temperature Precipitation Wind Pressure Humidity
    00:00 +19°C° 0 mm 2 mps 718 mmHg 22%
    01:00 +19°C° 0 mm 2 mps 718 mmHg 23%
    02:00 +18°C° 0 mm 2 mps 718 mmHg 23%
    03:00 +18°C° 0 mm 2 mps 717 mmHg 23%
    04:00 +17°C° 0 mm 2 mps 717 mmHg 24%
    05:00 +17°C° 0 mm 2 mps 717 mmHg 24%
    06:00 +17°C° 0 mm 2 mps 717 mmHg 23%
    07:00 +17°C° 0 mm 2 mps 717 mmHg 23%
    08:00 +19°C° 0 mm 3 mps 718 mmHg 20%
    09:00 +21°C° 0 mm 3 mps 718 mmHg 17%
    10:00 +24°C° 0 mm 3 mps 718 mmHg 15%
    11:00 +25°C° 0 mm 2 mps 717 mmHg 14%
    12:00 +26°C° 0 mm 2 mps 717 mmHg 13%
    13:00 +28°C° 0 mm 1 mps 716 mmHg 12%
    14:00 +28°C° 0 mm 1 mps 716 mmHg 12%
    15:00 +28°C° 0 mm 1 mps 715 mmHg 12%
    16:00 +28°C° 0 mm 1 mps 715 mmHg 12%
    17:00 +27°C° 0 mm 1 mps 715 mmHg 13%
    18:00 +26°C° 0 mm 2 mps 715 mmHg 13%
    19:00 +25°C° 0 mm 3 mps 716 mmHg 14%
    20:00 +24°C° 0 mm 3 mps 716 mmHg 15%
    21:00 +22°C° 0 mm 3 mps 716 mmHg 16%
    22:00 +22°C° 0 mm 3 mps 716 mmHg 17%
    23:00 +21°C° 0 mm 3 mps 716 mmHg 20%

    23 February, Friday

    Time Temperature Precipitation Wind Pressure Humidity
    00:00 +20°C° 0 mm 4 mps 716 mmHg 23%
    01:00 +19°C° 0 mm 4 mps 715 mmHg 26%
    02:00 +18°C° 0 mm 4 mps 715 mmHg 28%
    03:00 +17°C° 0 mm 4 mps 715 mmHg 30%
    04:00 +17°C° 0 mm 4 mps 715 mmHg 32%
    05:00 +15°C° 0 mm 4 mps 716 mmHg 33%
    06:00 +15°C° 0 mm 4 mps 716 mmHg 35%
    07:00 +15°C° 0 mm 4 mps 716 mmHg 36%
    08:00 +18°C° 0 mm 4 mps 717 mmHg 32%
    09:00 +20°C° 0 mm 4 mps 717 mmHg 27%
    10:00 +21°C° 0 mm 4 mps 718 mmHg 23%
    11:00 +24°C° 0 mm 3 mps 717 mmHg 21%
    12:00 +25°C° 0 mm 3 mps 717 mmHg 18%
    13:00 +26°C° 0 mm 2 mps 716 mmHg 16%
    14:00 +26°C° 0 mm 2 mps 716 mmHg 16%
    15:00 +27°C° 0 mm 2 mps 715 mmHg 16%
    16:00 +27°C° 0 mm 2 mps 715 mmHg 16%
    17:00 +25°C° 0 mm 2 mps 715 mmHg 18%
    18:00 +24°C° 0 mm 2 mps 715 mmHg 20%
    19:00 +23°C° 0 mm 1 mps 715 mmHg 21%
    20:00 +22°C° 0 mm 1 mps 715 mmHg 22%
    21:00 +22°C° 0 mm 1 mps 716 mmHg 23%
    22:00 +21°C° 0 mm 1 mps 716 mmHg 24%
    23:00 +20°C° 0 mm 1 mps 716 mmHg 25%

    24 February, Saturday

    Time Temperature Precipitation Wind Pressure Humidity
    00:00 +20°C° 0 mm 1 mps 716 mmHg 27%
    01:00 +19°C° 0 mm 1 mps 715 mmHg 29%
    02:00 +19°C° 0 mm 1 mps 716 mmHg 29%
    03:00 +18°C° 0 mm 2 mps 716 mmHg 29%
    04:00 +18°C° 0 mm 3 mps 716 mmHg 29%
    05:00 +18°C° 0 mm 3 mps 716 mmHg 32%
    06:00 +18°C° 0 mm 3 mps 716 mmHg 36%
    07:00 +17°C° 0 mm 4 mps 717 mmHg 39%
    08:00 +19°C° 0 mm 4 mps 717 mmHg 36%
    09:00 +22°C° 0 mm 4 mps 717 mmHg 33%
    10:00 +25°C° 0 mm 4 mps 718 mmHg 29%
    11:00 +26°C° 0 mm 4 mps 717 mmHg 27%
    12:00 +28°C° 0 mm 4 mps 717 mmHg 24%
    13:00 +29°C° 0 mm 5 mps 716 mmHg 21%
    14:00 +29°C° 0 mm 5 mps 716 mmHg 20%
    15:00 +30°C° 0 mm 5 mps 716 mmHg 19%
    16:00 +30°C° 0 mm 5 mps 715 mmHg 18%
    17:00 +29°C° 0 mm 4 mps 715 mmHg 19%
    18:00 +28°C° 0 mm 4 mps 715 mmHg 20%
    19:00 +27°C° 0 mm 4 mps 715 mmHg 21%
    20:00 +27°C° 0 mm 4 mps 715 mmHg 22%
    21:00 +26°C° 0 mm 5 mps 715 mmHg 22%
    22:00 +26°C° 0 mm 5 mps 715 mmHg 23%
    23:00 +26°C° 0 mm 5 mps 715 mmHg 25%
    Show more